STARLINK-33912, 64107

Orbit data source: Space-Track

STARLINK-33912, 64107 is a payload satellite owned by SpaceX/Seattle (US) in LEO that was launched on Fri, 23 May 2025 UTC via an FALCON 9 launch vehicle from the Air Force Western Test Range (AFWTR). Payload-class satellites include a variety of spacecraft equipped with specific instruments for various scientific and technological missions. These include communications satellites like Starlink; space stations such as the ISS; scientific satellites like the Hubble; Earth observation satellites from companies like Planet Labs, Umbra, and HawkEye 360; GPS; miniature CubeSats for education and research; and military/defense satellites.

Loading next visibility...
Identifier
64107, 2025-110M
Orbit
LEO
Country
Flag of USUS
Related business
Manufacturer
SpaceX/Seattle
Mission
Operational Commercial Communications
Bus & Motor
STARLINK V2MO, Unknown motor
Mass
575 kg wet, ~530 kg dry
Launch date (UTC)
2025-05-23 (1 year ago)
Launch vehicle
FALCON 9
Launch site
Air Force Western Test Range (AFWTR)
Object type
Payload
Rocket body
Debris
Shape & HBR
Box + 2 Pan, 17.7 m
Radar Cross Section
36.964 m², Large (>1 m²)

Expand to show TLE details & history
Last TLE update: 1 day ago

TLE from 1 day ago
0 STARLINK-33912
1 64107U 25110M   26170.54687847  .00016297  00000-0  53547-3 0  9994
2 64107  53.1596 273.1947 0001868  97.9670 262.1544 15.31718771 61487
Epoch: 2026-06-19T13:07Z
TLE epoch observation values (Epoch: 2026-06-19T13:07:30.299Z)
Latitude
0.00001°
Longitude
168.54416°
Altitude
471.759 km
Speed
7.631 km/s
True Right ascension
18h 12m 46s
True Declination
0° 00' 00"
Sunlit
Object was in full shadow at epoch
Visualization orbit readout
Latitude
Unknown
Longitude
Unknown
Altitude
Unknown
Speed
Unknown
Apparent Right ascension
Unknown
Apparent Declination
Unknown
Sunlit
N/A
Visualization observer readout
Local Sidereal Time
07:16:40
Azimuth
Unknown
Elevation
Unknown
Doppler factor
Unknown
Orbital elements
Apogee altitude
472.22 km
Perigee altitude
469.661 km
Semi-major axis
6,849.078 km
Eccentricity
0.00019
Inclination
53.1596°
RAAN
273.1947°
Arg. of periapsis
97.967°
True anomaly
262.1332°
Mean anomaly
262.1544°
Eccentric anomaly
262.1438°
Mean motion
3.82909 °/min
Orbital period
94.02 mins
BSTAR
0.00053547
Loading maneuver chart data...
Computing Atmospheric mass density...
Loading historical data...
Loading historical data...
Loading historical data...
Loading historical data...
Loading historical data...
Loading historical data...
Loading historical data...

Documentation

Showing up to 5 results
|